Portada
METAR-TAF:

METAR-TAF

Aeropuertos :

Bou Saâda, Argelia

latitud: 35-20N, longitud: 004-12E, altitud: 461 m

Observación

El informe se hizo hace 24 minutos, a las 08:00 UTC
Viento calma
Temperatura 27°C
Humedad 37%
Presión 1017 hPa
Visibilidad: 8000 m

METAR: DAAD 280800Z 00000KT 8000 NSC 27/11 Q1017

Hora: 09:24 (08:24 UTC)

Pronóstico

El informe se hizo hace 15 horas y 24 minutos, a las 17:00 UTC
Pronóstico válido del 27 a las 18 UTC al 28 a las 03 UTC
Viento 14 kt del este-sureste
Visibilidad: 8000 m

TAF: DAAD 271700Z 2718/2803 12014KT 8000 NSC

Observaciones y pronósticos meteorológicos de más de 4000 aeropuertos (mensajes METAR y TAF).

Los puntos amarillos y rojos representan las estaciones disponibles.

Ponga el ratón en el punto deseado para ver el nombre de la estación.

Haga clic para ver las observaciones y los pronósticos meteorológicos.

Para cambiar el mapa : haga clic en los botones verdes con una cruz de color negro para hacer un zoom, en el botón verde con un guión para alejar o en las flechas verdes para mapas adyacentes.


METAR-TAF: